Location: Stephenson Shoal
(50.8833°N, 0.8833°E)
Time: 16:32:30
(UTC+00:00)

Daily predictions for brighter satellites

Satellite Brightness Start Highest point End
(mag) Time Altitude Azimuth Time Altitude Azimuth Time Altitude Azimuth
CZ-4C R/B 4.4 20:38:55 10° NW 20:43:52 27° N 20:49:52 10° ENE
ATLAS 5 CENTAUR R/B 1.1 20:42:37 10° SSW 20:45:49 50° SE 20:49:23 10° NE
Cosmos 1674 Rocket 3.9 20:41:48 10° SSW 20:46:03 69° W 20:50:23 10° N
Cosmos 1975 Rocket 4.1 20:43:15 10° SSE 20:47:08 30° E 20:51:03 10° NNE
NOSS 2-2 (E) 4.3 20:45:18 10° SSE 20:47:32 17° ESE 20:49:42 10° ENE
Resurs 01 Rocket 4.0 20:44:22 10° SW 20:47:47 22° W 20:51:15 10° NW
Gbstr 26 Del rocket 3.3 20:45:33 10° SW 20:49:48 58° SSE 20:55:02 10° ENE
NOSS 2-2 (C) 3.7 20:47:23 10° S 20:50:09 27° SE 20:52:51 10° ENE
Okean 2 Rocket 4.4 20:50:44 10° NNW 20:54:59 42° W 20:59:12 10° SSW
Cosmos 1025 Rocket 3.0 20:51:27 10° S 20:55:39 67° E 20:59:53 10° NNE
Cosmos 1328 3.8 20:52:54 10° SSW 20:56:43 82° W 21:00:33 10° N
IRS-1C Rocket 4.3 20:51:29 10° S 20:56:45 75° WSW 21:02:03 10° NNW
BREEZE-M DEB (TANK) 2.6 20:54:48 10° WSW 20:57:06 52° SSE 21:00:14 10° E
NOSS 2-3 (C) 4.3 20:55:35 10° S 20:58:35 24° ESE 21:01:49 10° ENE
Cosmos 2154 Rocket 4.1 20:52:41 10° S 20:58:55 64° E 21:05:14 10° NNE
Okean O Rocket 3.8 20:55:31 10° SSW 20:58:59 23° W 21:02:29 10° NW
Spot 2 Rocket 3.6 20:56:35 10° SSE 21:01:41 79° ENE 21:06:49 10° NNW
Cosmos 2074 Rocket 4.0 20:56:58 10° S 21:03:13 83° E 21:09:32 10° N
Cosmos 1606 3.4 20:59:57 10° N 21:03:15 34° ENE 21:06:26 10° SE
CZ-4C R/B 3.3 21:00:58 10° NNE 21:04:47 79° WNW 21:08:23 10° SSW
ERS-1 Rocket 3.2 21:01:29 10° S 21:06:29 73° WSW 21:11:31 10° NNW
USA 238 DEB 4.2 21:00:34 10° WSW 21:06:52 63° NW 21:13:48 10° NE
USA 238 4.2 21:00:39 10° WSW 21:06:57 64° NW 21:13:53 10° NE
Terra 2.1 21:11:13 10° S 21:15:55 69° WSW 21:20:39 10° NNW
Meteor 1-21 Rocket 4.2 21:11:53 10° S 21:17:26 87° E 21:23:00 10° NNE
ARIANE 5 R/B 4.4 21:15:33 10° ESE 21:18:53 21° ENE 21:22:14 10° N
Timation 2 Rocket 4.1 21:14:01 10° S 21:20:07 52° ESE 21:26:02 10° NE
Meteor 2-11 Rocket 4.5 21:15:33 10° S 21:21:40 86° E 21:27:51 10° NNE
Cosmos 1048 Rocket 4.3 21:19:09 10° NNW 21:24:28 71° WSW 21:29:40 11° SSE
In-Cosmos 22 Rocket 4.3 21:18:53 10° S 21:24:36 72° E 21:30:14 10° NNE
Landsat 5 4.3 21:20:57 10° NNE 21:25:02 37° E 21:28:45 12° SSE
Lacrosse 5 1.8 21:20:02 10° SW 21:25:04 77° SE 21:30:09 10° ENE
NOSS 2-2 (D) 3.2 21:22:36 10° SSW 21:25:39 38° SE 21:28:36 10° ENE
Cosmos 1844 3.9 21:20:10 10° SSW 21:25:58 81° WNW 21:31:48 10° NNE
Meteor 2-1 Rocket 4.2 21:21:17 10° NNW 21:26:59 84° ENE 21:32:21 11° SSE
Ariane Rocket 3.2 21:23:52 10° S 21:28:55 69° WSW 21:33:59 10° NNW
SWAS 4.3 21:27:49 10° SSW 21:32:01 84° ESE 21:36:16 10° NNE
Cosmos 921 Rocket 3.6 21:29:43 10° NNW 21:33:44 48° WSW 21:37:45 10° S
USA 307 2.9 21:35:24 10° W 21:39:18 69° NNW 21:43:01 10° ENE
ATLAS CENTAUR R/B 1.6 21:36:56 10° NW 21:40:49 56° SW 21:43:55 16° SSE
SL-23 DEB 4.3 21:36:58 10° WNW 21:40:50 76° SSW 21:47:22 10° ESE
Cosmos 2366 rocket 4.3 21:40:44 13° SSE 21:45:56 48° E 21:51:48 10° NNE
USA 305 3.4 21:42:52 10° W 21:46:34 50° NNW 21:49:52 10° ENE
SPOT 3 Rocket 4.1 21:41:43 10° S 21:46:48 54° W 21:51:56 10° NNW
Cosmos 1833 Rocket 2.8 21:41:18 10° NNW 21:46:59 73° ENE 21:51:33 16° SE
Geosat 3.9 21:42:06 10° NNE 21:47:09 82° ESE 21:52:10 10° SSW
Cosmos 1437 Rocket 3.3 21:45:06 18° SSE 21:47:18 36° E 21:50:40 10° NNE
Cosmos 2228 3.1 21:44:13 10° N 21:48:25 62° ENE 21:51:26 18° SSE
Cosmos 44 4.2 21:44:14 11° S 21:48:39 32° ESE 21:53:07 10° NE
H-2A R/B 4.3 21:46:07 10° ESE 21:48:45 18° ENE 21:51:21 10° NNE
Cosmos 1125 Rocket 3.5 21:44:43 10° SSW 21:49:58 67° ESE 21:55:15 10° NNE
ATLAS 3B R/B 4.4 21:47:32 11° ESE 21:50:07 14° E 21:53:28 10° ENE
ISS -3.8 21:49:21 10° W 21:52:40 85° N 21:56:00 10° E
Cosmos 2082 Rocket 3.5 21:50:33 10° NNW 21:55:37 33° NE 22:00:39 10° ESE
SL-8 Rocket 4.1 21:51:43 12° S 21:57:24 66° E 22:03:41 10° NNE
Meteor 1-11 4.4 21:54:20 10° SSW 22:00:06 79° WNW 22:05:49 10° N
Cosmos 1544 Rocket 3.6 21:55:52 10° NNW 22:00:15 79° W 22:03:31 17° S
USA 276 2.5 21:58:09 10° W 22:01:01 41° SSW 22:02:15 26° SSE
NOSS 2-3 (D) 3.1 21:59:09 10° SW 22:02:50 81° SE 22:07:02 10° NE
Cosmos 2278 Rocket 3.3 22:01:22 18° SE 22:04:18 27° ESE 22:08:57 10° NE
Cosmos 1844 Rocket 4.1 22:03:25 10° WSW 22:08:37 39° NW 22:13:52 10° NNE
NOSS 3-1 (C) 3.9 22:08:04 19° SSE 22:10:32 29° ESE 22:15:24 10° ENE
USA 281 4.4 22:05:11 10° ESE 22:10:57 34° NE 22:16:45 10° NNW
MetOp-A 4.2 22:13:56 16° S 22:17:30 55° WSW 22:21:50 10° NNW
CZ-2C R/B 4.0 22:13:24 10° NNE 22:17:53 50° E 22:20:42 22° SSE
Cosmos 2084 3.4 22:14:53 10° SW 22:18:59 76° NW 22:22:56 10° NE
COSMOS 2406 4.3 22:13:58 10° NNW 22:19:16 38° NE 22:24:14 11° ESE
SeaSat 1 3.0 22:15:51 16° SE 22:19:37 53° NE 22:24:24 10° NNW
Cosmos 2084 Rocket 4.4 22:16:54 10° NW 22:20:42 39° NE 22:24:06 12° ESE
Cosmos 2218 Rocket 3.9 22:15:34 15° S 22:20:46 80° E 22:26:57 10° NNE
Cosmos 864 Rocket 4.5 22:21:14 14° S 22:26:42 89° ESE 22:32:57 10° N
Cosmos 2341 Rocket 4.2 22:22:38 11° SSW 22:28:45 75° W 22:35:08 10° N
ATLAS 5 CENTAUR R/B 3.5 22:26:46 10° W 22:29:47 26° NNW 22:33:11 10° NNE
NOSS 2-3 (E) 4.0 22:28:14 10° WSW 22:31:53 56° NW 22:36:08 10° NE
Cosmos 1606 Rocket 3.6 22:29:10 10° N 22:33:30 67° ENE 22:35:48 26° SSE
CZ-4C R/B 3.8 22:27:44 10° NW 22:33:55 44° NNE 22:41:33 10° E
Spot 4 4.3 22:31:10 21° SE 22:34:11 53° ENE 22:38:54 10° N
Gbstr 26 Del rocket 3.6 22:31:39 10° W 22:36:26 82° N 22:42:26 10° E
Cosmos 1726 Rocket 3.9 22:32:16 10° N 22:36:33 54° ENE 22:38:47 26° SE
NOSS 2-2 (E) 4.1 22:34:07 10° WSW 22:37:07 40° NW 22:40:12 10° NE
PSLV R/B 3.9 22:40:35 10° NNE 22:44:32 59° ESE 22:46:20 29° S
NOSS 3-1 (A) 4.1 22:45:18 23° SE 22:46:44 26° ESE 22:51:22 10° ENE
Cosmos 2298 Rocket 4.1 22:41:49 11° SSW 22:46:54 79° WNW 22:52:16 10° NNE
Cosmos 1943 Rocket 2.9 22:47:18 24° SSE 22:49:55 37° ESE 22:55:03 10° NE
ARIANE 5 R/B 3.0 22:52:30 25° S 22:54:54 57° W 22:59:19 10° NNW
Cosmos 1536 Rocket 4.1 22:52:39 17° SSW 22:55:49 53° WNW 23:00:05 10° N
Cosmos 2058 Rocket 3.6 22:52:28 10° N 22:56:41 47° ENE 22:58:47 26° SE
Cosmos 1727 Rocket 4.1 22:50:45 10° NNW 22:57:08 79° W 23:01:14 23° S
Aureole 2 4.4 22:57:41 44° SSE 22:58:12 51° ESE 23:01:27 10° NNE
ULPM Upper Stage 3.2 23:03:57 10° NW 23:08:18 62° NE 23:11:24 18° ESE
Lacrosse 5 2.9 23:03:28 10° W 23:08:22 47° NNW 23:13:17 10° ENE
Iridium 921 4.4 23:08:20 39° SSW 23:09:29 78° W 23:12:54 10° N
Cosmos 1821 Rocket 4.1 23:05:09 20° SSW 23:09:44 77° W 23:16:08 10° N
USA 307 3.4 23:09:06 10° WNW 23:12:52 51° N 23:16:19 10° E
Cosmos 1269 Rocket 4.1 23:08:45 10° NNW 23:14:03 69° WSW 23:16:47 29° S
ALOS 2 2.5 23:14:53 32° SSE 23:16:54 90° NNW 23:21:20 10° NNW
USA 305 3.2 23:15:44 10° WNW 23:19:10 47° N 23:22:06 10° E
Cosmos 1271 Rocket 4.1 23:19:49 22° ESE 23:20:42 24° E 23:23:46 10° NE
H-2A R/B 2.6 23:21:52 33° SSW 23:23:20 55° WSW 23:27:09 10° NNW
Alouette 2 Rocket 3.8 23:25:20 34° SSE 23:26:58 63° E 23:32:17 10° NNE
ISS -3.9 23:26:11 10° W 23:29:31 87° NNE 23:32:02 16° E
Cosmos 44 4.0 23:24:30 10° WSW 23:29:39 56° NW 23:34:35 10° NE
Cosmos 1833 Rocket 4.3 23:26:05 10° NW 23:30:21 22° WSW 23:33:13 15° SW
MINOTAUR 4 R/B 4.4 23:30:13 10° N 23:32:56 41° WNW 23:33:42 32° WSW
Cosmos 1812 3.3 23:31:51 10° NNW 23:35:14 42° W 23:36:16 32° SW
Cosmos 1932 4.4 23:29:21 10° NW 23:35:36 79° SW 23:39:30 24° SSE
H-2A R/B 3.1 23:33:20 10° NE 23:36:54 29° E 23:38:04 25° SE
CRYOSAT 2 4.4 23:32:43 10° N 23:37:38 75° E 23:39:55 32° S
USA 290 2.6 23:37:21 36° SW 23:38:25 59° WNW 23:41:36 10° NNE
Cosmos 1378 3.8 23:35:47 10° N 23:38:49 36° ENE 23:39:41 30° ESE
ATLAS 3B R/B 3.0 23:34:43 23° SSW 23:39:13 58° ESE 23:46:43 10° NE
Cosmos 2082 Rocket 2.4 23:34:30 10° NW 23:40:01 57° WSW 23:42:44 29° S
Cosmos 407 Rocket 3.6 23:37:00 10° NNW 23:42:11 69° ENE 23:45:13 25° SE
Cosmos 1238 Rocket 2.3 23:40:45 10° N 23:44:00 84° W 23:44:56 47° S
NOSS 8 (F) 4.3 23:40:58 10° NW 23:44:01 65° SW 23:44:42 49° S
Cosmos 1023 Rocket 4.4 23:42:34 10° NNW 23:47:39 72° WSW 23:50:03 32° S
Cosmos 2278 Rocket 2.6 23:43:09 14° SW 23:47:58 62° NW 23:53:37 10° NNE
Cosmos 1758 Rocket 4.2 23:48:54 30° SE 23:50:28 42° E 23:54:32 10° NNE
Cosmos 1892 Rocket 4.3 23:49:49 24° SW 23:52:13 48° WNW 23:56:32 10° N
Cosmos 2369 Rocket 3.6 23:50:20 19° SE 23:52:29 25° ESE 23:56:55 10° NE
Cosmos 1666 4.1 23:52:19 19° ESE 23:53:04 21° E 23:55:41 10° NE
